Belize, Belize

11:07 AM CST on February 11, 2016 (GMT -0600)
Philip S W Goldson International

Weather History for MZBZ - December, 2013

Change the Weather History Date:

Tuesday, December 3, 2013

  Actual Average Record
Temperature  
Mean Temperature 76 °F -  
Max Temperature 84 °F - 86 °F (1997)
Min Temperature 69 °F 69 °F 64 °F (1999)
Cooling Degree Days 12    
Growing Degree Days 26 (Base 50)    
Moisture  
Dew Point 71 °F    
Average Humidity 86    
Maximum Humidity 100    
Minimum Humidity 69    
Precipitation  
Precipitation 0.00 in 0.23 in - ()
Sea Level Pressure  
Sea Level Pressure 29.86 in    
Wind  
Wind Speed 3 mph ()    
Max Wind Speed 8 mph    
Max Gust Speed -    
Visibility 7.0 miles    
Events Fog    
Averages and records for this station are not official NWS values.
T = Trace of Precipitation, MM = Missing Value Source: Averaged Metar Reports

Daily Weather History Graph

Daily Weather History Graph

Search for Another Location

Airport or City:

Trip Planner

Search our weather history database for the weather conditions in past years. The results will help you decide how hot, cold, wet, or windy it might be!

Date:

Astronomy

Dec. 03, 2013 Rise Set
Actual Time 6:08 AM CST 5:17 PM CST
Civil Twilight 5:45 AM CST 5:40 PM CST
Nautical Twilight 5:18 AM CST 6:07 PM CST
Astronomical Twilight 4:51 AM CST 6:34 PM CST
Moon 6:41 AM CST (12/3) 6:17 PM CST (12/3)
Length of Visible Light 11h 55m
Length of Day
11h 08m
New Moon, 1% of the Moon is Illuminated
Dec 3
New Moon
Dec 9
First Quarter
Dec 17
Full
Dec 25
Last Quarter
Jan 1
New

Hourly Weather History & Observations

Time (CST) Temp. Heat Index Dew Point Humidity Pressure Visibility Wind Dir Wind Speed Gust Speed Precip Events Conditions
12:00 AM 73 °F - 72 °F 94% 29.91 in 12 mi Calm Calm - -   Scattered Clouds
3:00 AM 71 °F - 70 °F 97% 29.86 in 2 mi SSW 2.3 mph - -   Mostly Cloudy
5:00 AM 69.8 °F - 69.8 °F 100% 29.86 in 0.3 mi WNW 2.3 mph - N/A Fog Fog
5:25 AM - - 32.0 °F N/A% - 6.2 mi ESE 6.9 mph - N/A   Scattered Clouds
5:30 AM 69.8 °F - 69.8 °F 100% 29.86 in 5.0 mi Calm Calm - N/A   Partly Cloudy
6:00 AM 69 °F - 69 °F 98% 29.88 in 5 mi Calm Calm - - Fog Light Fog
6:00 AM 69.8 °F - 68.0 °F 94% 29.86 in 5.0 mi Calm Calm - N/A   Partly Cloudy
7:00 AM 69.8 °F - 68.0 °F 94% 29.89 in 1.9 mi NW 2.3 mph - N/A   Mostly Cloudy
7:10 AM 69.8 °F - 68.0 °F 94% 29.89 in 6.2 mi NW 2.3 mph - N/A   Partly Cloudy
8:00 AM 73.4 °F - 71.6 °F 94% 29.89 in 6.2 mi Calm Calm - N/A   Partly Cloudy
9:00 AM 78 °F - 73 °F 79% 29.93 in 14 mi ENE 4.6 mph - -   Scattered Clouds
9:00 AM 77.0 °F - 73.4 °F 89% 29.92 in 6.2 mi ENE 4.6 mph - N/A   Partly Cloudy
10:00 AM 80.6 °F 85.4 °F 73.4 °F 79% 29.92 in 6.2 mi East 5.8 mph - N/A   Scattered Clouds
11:00 AM 82.4 °F 89.5 °F 75.2 °F 79% 29.90 in 6.2 mi East 5.8 mph - N/A   Scattered Clouds
12:00 PM 83 °F - 74 °F 69% 29.87 in 14 mi SSE 6.9 mph - -   Partly Cloudy
12:00 PM 82.4 °F 89.5 °F 75.2 °F 79% 29.87 in 6.2 mi SSE 6.9 mph - N/A   Scattered Clouds
1:00 PM 84.2 °F 90.9 °F 73.4 °F 70% 29.83 in 6.2 mi South 8.1 mph - N/A   Scattered Clouds
2:00 PM 82.4 °F 89.5 °F 75.2 °F 79% 29.81 in 6.2 mi SSE 6.9 mph - N/A   Scattered Clouds
3:00 PM 82 °F - 75 °F 73% 29.80 in 16 mi SSE 6.9 mph - -   Partly Cloudy
3:00 PM 82.4 °F 89.5 °F 75.2 °F 79% 29.79 in 6.2 mi SSE 6.9 mph - N/A   Scattered Clouds
4:00 PM 82.4 °F 90.9 °F 77.0 °F 84% 29.79 in 6.2 mi SSE 6.9 mph - N/A   Scattered Clouds
5:00 PM 80.6 °F 85.4 °F 73.4 °F 79% 29.80 in 6.2 mi ESE 4.6 mph - N/A   Scattered Clouds
6:00 PM 78.8 °F - 75.2 °F 89% 29.80 in 6.2 mi ESE 3.5 mph - N/A   Scattered Clouds
7:00 PM 77.0 °F - 75.2 °F 94% 29.83 in 6.2 mi ESE 4.6 mph - N/A   Scattered Clouds
9:00 PM 79 °F - 75 °F 83% 29.88 in 12 mi ESE 3.5 mph - -   Partly Cloudy